Tenerife > ESTACION METEOROLÓGICA Puerto de la Cruz

DATOS ACTUALES Online

Ultima actulizacion 1 h 4 minutos

20.9 ºC

Temperatura

71

Humedad (%)

1017.8

Presión (mb)

0

Precipitación (mm)

0.8 W

Viento (Km/h)

DATOS DIARIOS

Temperatura últimas 24 horas (ºC)

Humedad últimas 24 horas (%)

Presión atmosférica últimas 24 horas (mb)

Precipitaciones últimas 23 horas (mm)

Viento últimas 24 horas (Km/h)

Hora Temperatura (°C) ºC Precipitación (mm) mm Presión (mb) mb Humedad (%) % Viento (Km/h) km/h
29 - 01:00 20.5 0 1018 84 2.6 NO
29 - 02:00 20.2 0 1018 80 1.2 O
29 - 03:00 20.1 0 1018 78 0.7 SO
29 - 04:00 20.1 0 1017 75 0.8 S
29 - 05:00 19.9 0 1017 72 2 S
29 - 06:00 19.9 0 1017 68 2.5 S
29 - 07:00 19.6 0 1017 68 1.5 S
29 - 08:00 20.1 0 1017 66 1.3 S
29 - 09:00 20.9 0 1018 71 0.3 W
29 - 10:00 21.3 0 1018 73 1 N
29 - 11:00 22.1 0 1018 71 1.6 N
29 - 12:00 21.7 0 1018 71 1.6 NW
29 - 13:00 21.4 0 1018 75 1.8 NW
29 - 14:00 21.4 0 1018 78 1.5 NW
29 - 15:00 21.4 0 1017 70 1.2 NW
29 - 16:00 21.5 0 1017 68 1.6 W
29 - 17:00 21.5 0 1017 67 1 NW
29 - 18:00 21.5 0 1017 68 1 NW
29 - 19:00 21.8 0 1017 65 1.2 NW
29 - 20:00 21.4 0 1017 69 1 W
29 - 21:00 21.2 0 1017 71 0.8 W
29 - 22:00 21 0 1017 73 1.3 S
29 - 23:00 21.1 0 1018 73 0.6 S
30 - 00:00 20.9 0 1018 71 0.8 W
30 - 01:00
Apalmet utiliza cookies propias y de terceros para mejorar la usabilidad y la experiencia web. Política de cookies.